Location: Central Falls
(41.8900°N, 71.3929°W)
Time: 03:34:52
(UTC+00:00)

Vanguard 2 Rocket - Pass Details

Date: 11 December 2023
Orbit: 555 x 3309 km, 32.9° (Epoch: 01 March)

Event Time Altitude Azimuth Distance (km) Brightness Sun altitude
Rises 17:49:38 0° 239° (WSW) 5,316 11.5 23.1°
Reaches altitude 10° 17:52:41 10° 235° (SW) 4,631 11.5 22.9°
Maximum altitude 18:06:26 57° 162° (SSE) 3,274 10.5 22.0°
Drops below altitude 10° 18:25:41 10° 92° (E) 6,265 11.0 20.5°
Sets 18:30:38 0° 89° (E) 7,232 11.2 20.1°
